Regional Weather Roundup
Issued by NWS

Home | Current Version | Previous Version | Graphics & Text | Print | Product List | Glossary On
Versions: 1 2 3 4 5 6 7 8 9 10 11 12 13 14 15 16 17 18 19 20 21 22 23 24 25 26 27 28 29 30 31 32 33 34 35 36 37 38 39 40 41 42 43 44 45 46 47 48 49 50
000
ASUS43 KLSX 111657
RWRMO

WEATHER SUMMARY FOR MISSOURI
NATIONAL WEATHER SERVICE SPRINGFIELD MO
1100 AM CST THU FEB 11 2016

NOTE: "FAIR" INDICATES FEW OR NO CLOUDS BELOW 12,000 FEET WITH NO
       SIGNIFICANT WEATHER AND/OR OBSTRUCTIONS TO VISIBILITY.
       CURRENT SKY AND/OR WEATHER CONDITIONS ARE NOT AVAILABLE FOR
       CHILLICOTHE AND FARMINGTON.

MOZ001>031-035>038-043-044-053-054-111800-
...NORTHERN AND WESTERN MISSOURI...

CITY           SKY/WX    TMP DP  RH WIND       PRES   REMARKS
KANSAS CTY INT PTSUNNY   29  20  69 E8        30.30F WCI  21
ST JOSEPH      SUNNY     27  16  63 VRB6      30.33F WCI  20
CHILLICOTHE      N/A     27  11  51 NE5       30.34F WCI  22

$$
MOZ066>068-077>081-088>096-101>105-111800-
...SOUTHWEST MISSOURI...

CITY           SKY/WX    TMP DP  RH WIND       PRES   REMARKS
SPRINGFIELD    SUNNY     37  16  42 NE10      30.21S WCI  30
JOPLIN         SUNNY     37  20  50 NE10      30.24S WCI  30

$$
MOZ032>034-039>042-045>050-055>058-069>072-111800-
...CENTRAL MISSOURI...

CITY           SKY/WX    TMP DP  RH WIND       PRES   REMARKS
COLUMBIA       NOT AVBL
JEFFERSON CITY SUNNY     28  17  63 E5        30.34R WCI  23
ROLLA          SUNNY     29  20  69 E10       30.26S WCI  20
SEDALIA        SUNNY     32  18  56 NE10      30.32R WCI  24

$$
MOZ051-052-059>065-111800-
...EAST CENTRAL MISSOURI...

CITY           SKY/WX    TMP DP  RH WIND       PRES   REMARKS
ST LOUIS INTL  PTSUNNY   25  10  53 CALM      30.35R

$$
MOZ072>076-082>087-097>100-106>115-111800-
...SOUTH CENTRAL AND SOUTHEAST MISSOURI...

CITY           SKY/WX    TMP DP  RH WIND       PRES   REMARKS
CAPE GIRARDEAU SUNNY     32  22  66 N10       30.31S WCI  24
POPLAR BLUFF   SUNNY     34  21  59 NE15      30.28S WCI  24
WEST PLAINS    SUNNY     36  15  42 E9        30.24R WCI  29

$$


USA.gov is the U.S. government's official web portal to all federal, state and local government web resources and services.